CW4517 Weather Reports


Display with metric or nautical units.
time (UTC)temp
F
wind
direction
speed
MPH
gust
MPH
rain 1hr
in
rain 24hr
in
rain mn
in
humidity
%
barometer
mb
20190119085038 27 66 8.0 16.0 0.00 0.00 0.00 90 1013.6
20190119084138 28 64 8.0 17.0 0.00 0.00 0.00 89 1014.2
20190119083238 28 63 6.0 13.0 0.00 0.00 0.00 89 1014.2
20190119082338 28 66 7.0 18.0 0.00 0.00 0.00 89 1014.2
20190119081438 28 65 8.0 16.0 0.00 0.00 0.00 89 1014.3
20190119080538 28 69 6.0 15.0 0.00 0.00 0.00 89 1014.3
20190119075638 28 68 7.0 12.0 0.00 0.00 0.00 90 1014.3
20190119074738 28 68 8.0 17.0 0.00 0.00 0.00 89 1014.3
20190119073838 28 67 9.0 16.0 0.00 0.00 0.00 89 1014.3
20190119072938 28 61 7.0 16.0 0.00 0.00 0.00 89 1014.2
20190119072038 28 58 9.0 19.0 0.00 0.00 0.00 89 1014.2
20190119071138 28 64 9.0 19.0 0.00 0.00 0.00 89 1014.7
20190119070238 28 62 8.0 19.0 0.00 0.00 0.00 89 1014.7
20190119065338 28 61 7.0 14.0 0.00 0.00 0.00 89 1015.0
20190119064437 28 55 8.0 16.0 0.00 0.00 0.00 89 1015.3
20190119063537 28 57 8.0 15.0 0.00 0.00 0.00 90 1015.3
20190119062637 28 59 8.0 16.0 0.00 0.00 0.00 90 1015.3
20190119061738 28 55 8.0 16.0 0.00 0.00 0.00 90 1015.3
20190119060837 28 56 7.0 16.0 0.00 0.00 0.00 90 1015.5
20190119055938 28 55 9.0 18.0 0.00 0.00 0.00 89 1015.6
20190119055038 28 57 9.0 19.0 0.00 0.00 0.00 87 1015.6
20190119054137 28 51 8.0 16.0 0.00 0.00 0.00 86 1015.9
20190119053237 28 53 7.0 15.0 0.00 0.00 0.00 85 1015.9
20190119052337 28 59 6.0 21.0 0.00 0.00 0.00 85 1015.8
20190119051437 28 59 8.0 15.0 0.00 0.00 0.00 85 1015.3
20190119050537 28 53 10.0 21.0 0.00 0.00 0.00 85 1015.3
20190119045637 28 52 8.0 16.0 0.00 0.00 0.00 85 1015.1
20190119044737 28 55 8.0 16.0 0.00 0.00 0.00 85 1015.1
20190119043837 28 51 8.0 15.0 0.00 0.00 0.00 85 1015.2
20190119042937 28 54 9.0 18.0 0.00 0.00 0.00 84 1015.7
20190119042037 28 53 8.0 17.0 0.00 0.00 0.00 84 1015.7
20190119041137 28 58 6.0 13.0 0.00 0.00 0.00 84 1015.8
20190119040237 28 55 7.0 13.0 0.00 0.00 0.00 84 1015.8
20190119035337 28 51 6.0 14.0 0.00 0.00 0.00 84 1015.9
20190119034437 28 52 7.0 13.0 0.00 0.00 0.00 84 1016.3
20190119033537 29 57 6.0 13.0 0.00 0.00 0.00 83 1016.3
20190119032637 29 63 6.0 14.0 0.00 0.00 0.00 83 1016.3
20190119031737 29 60 8.0 16.0 0.00 0.00 0.00 82 1016.3
20190119030837 29 63 8.0 14.0 0.00 0.00 0.00 82 1016.8
20190119025937 29 61 6.0 13.0 0.00 0.00 0.00 82 1016.8
20190119025037 29 65 6.0 12.0 0.00 0.00 0.00 82 1016.8
20190119024137 29 71 5.0 12.0 0.00 0.00 0.00 82 1016.8
20190119023237 29 76 5.0 11.0 0.00 0.00 0.00 83 1016.8
20190119022337 29 75 6.0 11.0 0.00 0.00 0.00 82 1016.8
20190119021440 29 70 6.0 14.0 0.00 0.00 0.00 82 1016.8
20190119020537 29 72 7.0 16.0 0.00 0.00 0.00 82 1016.8
20190119015637 29 74 6.0 12.0 0.00 0.00 0.00 83 1016.9
20190119014737 29 70 6.0 12.0 0.00 0.00 0.00 83 1016.9
20190119013837 29 77 5.0 13.0 0.00 0.00 0.00 84 1016.6
20190119012937 29 75 6.0 16.0 0.00 0.00 0.00 84 1016.3
20190119012037 29 72 6.0 16.0 0.00 0.00 0.00 84 1016.3
20190119011137 29 72 8.0 17.0 0.00 0.00 0.00 84 1016.3
20190119010237 29 65 9.0 16.0 0.00 0.00 0.00 84 1016.3
20190119005337 29 68 10.0 21.0 0.00 0.00 0.00 84 1016.7
20190119004437 29 64 9.0 17.0 0.00 0.00 0.00 84 1016.9
20190118225637 29 51 6.0 14.0 0.00 0.00 0.00 85 1017.3
20190118224736 29 55 7.0 11.0 0.00 0.00 0.00 84 1017.3
20190118224126 29 65 7.0 15.0 0.00 0.00 0.00 84 1017.3
20190118222936 29 64 7.0 16.0 0.00 0.00 0.00 83 1017.3
20190118222036 29 60 5.0 13.0 0.00 0.00 0.00 83 1017.3
20190118221136 29 56 6.0 13.0 0.00 0.00 0.00 83 1017.5
20190118220236 29 48 7.0 16.0 0.00 0.00 0.00 83 1017.5
20190118215336 29 54 8.0 14.0 0.00 0.00 0.00 82 1017.6
20190118214436 29 48 7.0 15.0 0.00 0.00 0.00 82 1017.5
20190118213536 29 51 6.0 14.0 0.00 0.00 0.00 82 1017.5
20190118212637 29 53 9.0 19.0 0.00 0.00 0.00 83 1017.3
20190118211736 29 58 9.0 18.0 0.00 0.00 0.00 83 1017.3
20190118210836 29 62 9.0 17.0 0.00 0.00 0.00 82 1017.4
20190118205936 29 55 8.0 16.0 0.00 0.00 0.00 82 1017.5
20190118205036 29 61 6.0 15.0 0.00 0.00 0.00 82 1017.5
20190118204136 30 50 7.0 16.0 0.00 0.00 0.00 82 1017.5
20190118203236 30 55 6.0 13.0 0.00 0.00 0.00 81 1017.5
20190118202336 30 64 6.0 13.0 0.00 0.00 0.00 80 1017.3
20190118201436 30 61 7.0 15.0 0.00 0.00 0.00 81 1017.4
20190118200536 30 64 8.0 14.0 0.00 0.00 0.00 80 1017.4
20190118195636 30 63 7.0 14.0 0.00 0.00 0.00 80 1017.8
20190118194736 30 56 5.0 11.0 0.00 0.00 0.00 80 1017.8
20190118193836 30 52 5.0 9.0 0.00 0.00 0.00 80 1017.9
20190118192936 30 52 5.0 9.0 0.00 0.00 0.00 79 1018.2
20190118192036 31 45 3.0 7.0 0.00 0.00 0.00 79 1018.2
20190118191136 31 238 0.0 2.0 0.00 0.00 0.00 80 1018.4
20190118190236 31 238 1.0 2.0 0.00 0.00 0.00 80 1018.4
20190118185336 31 228 2.0 4.0 0.00 0.00 0.00 80 1018.3
20190118184436 31 207 1.0 3.0 0.00 0.00 0.00 79 1018.4
20190118183536 31 206 1.0 3.0 0.00 0.00 0.00 79 1018.4
20190118182636 31 207 1.0 3.0 0.00 0.00 0.00 79 1018.3
20190118181736 31 207 0.0 2.0 0.00 0.00 0.00 79 1018.3
20190118180836 31 205 1.0 3.0 0.00 0.00 0.00 79 1018.2
20190118175936 31 204 1.0 2.0 0.00 0.00 0.00 79 1018.8
20190118175036 31 221 1.0 3.0 0.00 0.00 0.00 79 1018.8
20190118174136 31 218 2.0 4.0 0.00 0.00 0.00 80 1019.5
20190118173236 31 232 3.0 6.0 0.00 0.00 0.00 80 1019.5
20190118172336 31 236 3.0 6.0 0.00 0.00 0.00 80 1019.5
20190118171436 31 233 4.0 7.0 0.00 0.00 0.00 80 1018.9
20190118170536 31 147 1.0 3.0 0.00 0.00 0.00 78 1018.9
20190118165636 31 173 1.0 3.0 0.00 0.00 0.00 79 1019.0
20190118164736 31 206 2.0 4.0 0.00 0.00 0.00 80 1019.0
20190118163836 31 196 1.0 2.0 0.00 0.00 0.00 79 1018.8
20190118162936 31 205 2.0 5.0 0.00 0.00 0.00 80 1019.3
20190118162036 31 218 3.0 5.0 0.00 0.00 0.00 80 1019.3
20190118161135 31 200 1.0 5.0 0.00 0.00 0.00 78 1019.3
20190118160236 31 81 0.0 2.0 0.00 0.00 0.00 78 1019.3
20190118155338 31 77 0.0 1.0 0.00 0.00 0.00 79 1018.9
20190118154435 31 76 0.0 1.0 0.00 0.00 0.00 79 1018.8
20190118153535 31 77 0.0 2.0 0.00 0.00 0.00 79 1018.8
20190118152635 31 77 0.0 2.0 0.00 0.00 0.00 79 1018.4
20190118151735 30 59 1.0 3.0 0.00 0.00 0.00 79 1018.4
20190118150835 30 346 1.0 2.0 0.00 0.00 0.00 80 1018.1
20190118145935 31 350 0.0 2.0 0.00 0.00 0.00 79 1017.7
20190118145035 30 350 0.0 2.0 0.00 0.00 0.00 80 1017.7
20190118144135 30 348 1.0 2.0 0.00 0.00 0.00 80 1017.8
20190118143235 30 348 1.0 2.0 0.00 0.00 0.00 80 1017.8
20190118142335 30 348 0.0 2.0 0.00 0.00 0.00 80 1017.9
20190118141435 30 337 1.0 3.0 0.00 0.00 0.00 80 1017.6
20190118140535 30 296 1.0 2.0 0.00 0.00 0.00 80 1017.6
20190118135635 30 251 1.0 2.0 0.00 0.00 0.00 81 1017.7
20190118134735 30 248 2.0 4.0 0.00 0.00 0.00 81 1017.7
20190118133835 30 238 1.0 3.0 0.00 0.00 0.00 81 1017.4
20190118132935 30 237 1.0 2.0 0.00 0.00 0.00 81 1017.3
20190118132035 30 237 1.0 3.0 0.00 0.00 0.00 81 1017.3
20190118131135 30 244 2.0 5.0 0.00 0.00 0.00 81 1017.4
20190118130235 30 263 2.0 4.0 0.00 0.00 0.00 81 1017.4
20190118125335 30 271 2.0 4.0 0.00 0.00 0.00 81 1017.4
20190118124435 30 288 1.0 4.0 0.00 0.00 0.00 81 1016.8
20190118123535 30 336 0.0 2.0 0.00 0.00 0.00 82 1016.8
20190118122635 30 337 0.0 2.0 0.00 0.00 0.00 82 1016.6
20190118121735 30 335 1.0 3.0 0.00 0.00 0.00 82 1016.6
20190118120835 30 346 0.0 2.0 0.00 0.00 0.00 83 1016.7
20190118115935 30 346 0.0 2.0 0.00 0.00 0.00 83 1016.2
20190118115035 30 346 1.0 3.0 0.00 0.00 0.00 83 1016.2
20190118114135 30 353 2.0 5.0 0.00 0.00 0.00 82 1015.9
20190118113235 30 315 1.0 3.0 0.00 0.00 0.00 82 1015.9
20190118112335 30 308 1.0 4.0 0.00 0.00 0.00 82 1016.1
20190118111435 30 323 1.0 3.0 0.00 0.00 0.00 82 1016.3
20190118110535 30 318 2.0 5.0 0.00 0.00 0.00 82 1016.3
20190118105635 30 311 1.0 5.0 0.00 0.00 0.00 83 1016.3
20190118104735 30 312 2.0 5.0 0.00 0.00 0.00 84 1016.3
20190118103835 30 313 3.0 7.0 0.00 0.00 0.00 85 1016.3
20190118102938 30 305 3.0 6.0 0.00 0.00 0.00 88 1016.3
20190118102035 30 306 2.0 5.0 0.00 0.00 0.00 88 1016.3
20190118101135 30 298 2.0 5.0 0.00 0.00 0.00 89 1016.3
20190118100234 30 296 3.0 5.0 0.00 0.00 0.00 89 1016.3
20190118095335 30 297 3.0 6.0 0.00 0.00 0.00 89 1016.4
20190118094436 30 278 3.0 6.0 0.00 0.00 0.00 89 1016.4
20190118093534 30 287 3.0 4.0 0.00 0.00 0.00 89 1016.4
20190118092634 30 287 3.0 6.0 0.00 0.00 0.00 89 1016.4
20190118091735 30 272 3.0 5.0 0.00 0.00 0.00 89 1016.4
20190118090834 31 282 4.0 8.0 0.00 0.00 0.00 89 1016.4
20190118085934 31 280 4.0 7.0 0.00 0.00 0.00 89 1016.3